Zapata, TX

8:51 AM CDT on April 23, 2018 (GMT -0500)
Zapata

Weather History for KAPY - May, 2012

Change the Weather History Date:

Saturday, May 26, 2012

  Actual Average (KLRD) Record (KLRD)
Temperature  
Mean Temperature 86 °F -  
Max Temperature 96 °F 93 °F 109 °F (1973)
Min Temperature 76 °F 70 °F 59 °F (1941)
Cooling Degree Days 21    
Growing Degree Days 36 (Base 50)    
Moisture  
Dew Point 69 °F    
Average Humidity 61    
Maximum Humidity 94    
Minimum Humidity 32    
Precipitation  
Precipitation 0.00 in - - ()
Sea Level Pressure  
Sea Level Pressure 29.89 in    
Wind  
Wind Speed 14 mph (SE)    
Max Wind Speed 23 mph    
Max Gust Speed 31 mph    
Visibility 9 miles    
Events      
Averages and records for this station are not official NWS values.
T = Trace of Precipitation, MM = Missing Value Source: NWS Daily Summary

Daily Weather History Graph

Daily Weather History Graph

Search for Another Location

Airport or City:

Astronomy

May. 26, 2012 Rise Set
Actual Time 6:44 AM CDT 8:24 PM CDT
Civil Twilight 6:18 AM CDT 8:49 PM CDT
Nautical Twilight 5:47 AM CDT 9:20 PM CDT
Astronomical Twilight 5:15 AM CDT 9:53 PM CDT
Moon 11:34 AM CDT (5/26) 12:10 AM CDT (5/26)
Length of Visible Light 14h 31m
Length of Day
13h 39m
Waxing Crescent, 28% of the Moon is Illuminated
May 26
Waxing Crescent
May 28
First Quarter
Jun 4
Full
Jun 11
Last Quarter
Jun 19
New

Hourly Weather History & Observations

Time (CDT) Temp. Heat Index Dew Point Humidity Pressure Visibility Wind Dir Wind Speed Gust Speed Precip Events Conditions
12:15 AM 81.0 °F 85.2 °F 72.1 °F 74% 29.90 in 10.0 mi SE 18.4 mph 26.5 mph N/A   Overcast
12:35 AM 80.8 °F 84.9 °F 71.8 °F 74% 29.91 in 10.0 mi SE 15.0 mph 26.5 mph N/A   Overcast
12:55 AM 81.0 °F 85.1 °F 71.6 °F 73% 29.91 in 10.0 mi SE 12.7 mph 24.2 mph N/A   Overcast
1:15 AM 81.0 °F 85.1 °F 71.6 °F 73% 29.91 in 10.0 mi SE 17.3 mph 24.2 mph N/A   Overcast
1:35 AM 81.1 °F 85.2 °F 71.4 °F 72% 29.92 in 10.0 mi SE 13.8 mph 23.0 mph N/A   Overcast
1:55 AM 80.8 °F 84.7 °F 71.6 °F 73% 29.92 in 10.0 mi SE 12.7 mph 18.4 mph N/A   Overcast
2:15 AM 80.6 °F 84.6 °F 71.8 °F 74% 29.92 in 10.0 mi SE 17.3 mph 23.0 mph N/A   Overcast
2:35 AM 80.8 °F 84.9 °F 72.0 °F 74% 29.91 in 10.0 mi SSE 13.8 mph 19.6 mph N/A   Overcast
2:55 AM 80.8 °F 84.9 °F 72.0 °F 74% 29.91 in 10.0 mi SE 15.0 mph 20.7 mph N/A   Mostly Cloudy
3:15 AM 80.1 °F 84.0 °F 72.1 °F 77% 29.91 in 10.0 mi SE 13.8 mph 23.0 mph N/A   Scattered Clouds
3:35 AM 79.7 °F - 72.5 °F 79% 29.91 in 10.0 mi SE 12.7 mph 19.6 mph N/A   Scattered Clouds
3:55 AM 79.3 °F - 72.7 °F 80% 29.91 in 10.0 mi SE 10.4 mph 16.1 mph N/A   Clear
4:15 AM 79.2 °F - 72.9 °F 81% 29.91 in 10.0 mi SE 11.5 mph 17.3 mph N/A   Clear
4:35 AM 78.8 °F - 73.0 °F 82% 29.91 in 10.0 mi SE 8.1 mph - N/A   Clear
4:55 AM 78.4 °F - 73.4 °F 84% 29.91 in 10.0 mi ESE 9.2 mph - N/A   Clear
5:15 AM 78.1 °F - 73.4 °F 85% 29.91 in 7.0 mi SE 6.9 mph - N/A   Clear
5:35 AM 77.9 °F - 73.4 °F 86% 29.91 in 7.0 mi ESE 6.9 mph - N/A   Clear
5:55 AM 77.7 °F - 73.4 °F 86% 29.91 in 7.0 mi SE 5.8 mph - N/A   Clear
6:15 AM 77.0 °F - 73.4 °F 89% 29.91 in 7.0 mi ESE 8.1 mph - N/A   Clear
6:35 AM 76.5 °F - 73.4 °F 90% 29.92 in 7.0 mi ESE 5.8 mph - N/A   Clear
6:55 AM 76.3 °F - 74.3 °F 94% 29.92 in 5.0 mi ESE 9.2 mph - N/A   Clear
7:15 AM 77.0 °F - 74.3 °F 91% 29.92 in 5.0 mi ESE 11.5 mph 16.1 mph N/A   Clear
7:35 AM 77.7 °F - 74.3 °F 89% 29.92 in 5.0 mi ESE 9.2 mph - N/A   Clear
7:55 AM 78.8 °F - 74.3 °F 86% 29.93 in 7.0 mi ESE 10.4 mph 17.3 mph N/A   Scattered Clouds
8:15 AM 79.3 °F - 74.3 °F 84% 29.94 in 7.0 mi ESE 13.8 mph 19.6 mph N/A   Overcast
8:35 AM 80.6 °F 85.7 °F 74.3 °F 81% 29.94 in 7.0 mi ESE 13.8 mph - N/A   Mostly Cloudy
8:55 AM 81.3 °F 86.5 °F 73.6 °F 77% 29.94 in 7.0 mi SE 17.3 mph - N/A   Mostly Cloudy
9:15 AM 82.8 °F 88.7 °F 73.4 °F 73% 29.94 in 7.0 mi SE 9.2 mph 20.7 mph N/A   Mostly Cloudy
9:35 AM 83.1 °F 88.9 °F 72.7 °F 71% 29.94 in 10.0 mi SE 13.8 mph 20.7 mph N/A   Mostly Cloudy
9:55 AM 84.2 °F 90.6 °F 72.9 °F 69% 29.94 in 10.0 mi SE 12.7 mph 20.7 mph N/A   Mostly Cloudy
10:15 AM 85.1 °F 91.8 °F 73.0 °F 67% 29.94 in 10.0 mi SE 12.7 mph 17.3 mph N/A   Mostly Cloudy
10:35 AM 85.8 °F 92.2 °F 72.3 °F 64% 29.94 in 10.0 mi SSE 12.7 mph 18.4 mph N/A   Mostly Cloudy
10:55 AM 85.8 °F 91.5 °F 71.4 °F 62% 29.94 in 10.0 mi South 12.7 mph 20.7 mph N/A   Overcast
11:15 AM 87.4 °F 93.1 °F 70.9 °F 58% 29.94 in 10.0 mi SE 13.8 mph 24.2 mph N/A   Mostly Cloudy
11:35 AM 90.0 °F 95.9 °F 70.7 °F 53% 29.94 in 10.0 mi SSE 16.1 mph 23.0 mph N/A   Scattered Clouds
11:55 AM 90.0 °F 95.4 °F 70.2 °F 52% 29.93 in 10.0 mi SSE 13.8 mph 24.2 mph N/A   Scattered Clouds
12:15 PM 90.1 °F 94.9 °F 69.3 °F 50% 29.93 in 10.0 mi SSE 15.0 mph 21.9 mph N/A   Mostly Cloudy
12:35 PM 91.4 °F 96.3 °F 68.9 °F 48% 29.92 in 10.0 mi SE 12.7 mph 21.9 mph N/A   Mostly Cloudy
12:55 PM 93.0 °F 96.9 °F 67.6 °F 43% 29.91 in 10.0 mi SSE 12.7 mph 23.0 mph N/A   Scattered Clouds
1:15 PM 92.7 °F 95.8 °F 66.6 °F 42% 29.91 in 10.0 mi SSE 15.0 mph 21.9 mph N/A   Mostly Cloudy
1:35 PM 94.1 °F 96.9 °F 66.0 °F 39% 29.90 in 10.0 mi SE 12.7 mph 20.7 mph N/A   Scattered Clouds
1:55 PM 94.3 °F 97.2 °F 65.5 °F 39% 29.89 in 10.0 mi SE 16.1 mph 24.2 mph N/A   Scattered Clouds
2:15 PM 94.5 °F 97.0 °F 65.1 °F 38% 29.89 in 10.0 mi SSE 12.7 mph 24.2 mph N/A   Scattered Clouds
2:35 PM 94.6 °F 96.8 °F 64.6 °F 37% 29.88 in 10.0 mi SE 13.8 mph 21.9 mph N/A   Scattered Clouds
2:55 PM 95.4 °F 97.1 °F 63.9 °F 35% 29.86 in 10.0 mi SE 12.7 mph 23.0 mph N/A   Scattered Clouds
3:15 PM 95.2 °F 96.3 °F 62.4 °F 34% 29.86 in 10.0 mi ESE 16.1 mph 24.2 mph N/A   Clear
3:35 PM 96.6 °F 98.2 °F 63.1 °F 33% 29.85 in 10.0 mi ESE 12.7 mph 20.7 mph N/A   Scattered Clouds
3:55 PM 96.4 °F 97.4 °F 62.1 °F 32% 29.85 in 10.0 mi ESE 17.3 mph 25.3 mph N/A   Mostly Cloudy
4:15 PM 96.4 °F 97.4 °F 62.2 °F 32% 29.84 in 10.0 mi ESE 15.0 mph 26.5 mph N/A   Scattered Clouds
4:35 PM 95.2 °F 96.3 °F 62.4 °F 34% 29.83 in 10.0 mi ESE 17.3 mph 26.5 mph N/A   Scattered Clouds
5:15 PM 95.7 °F 97.2 °F 63.1 °F 34% 29.82 in 10.0 mi ESE 21.9 mph 31.1 mph N/A   Scattered Clouds
5:35 PM 95.2 °F 96.3 °F 62.6 °F 34% 29.82 in 10.0 mi ESE 19.6 mph 25.3 mph N/A   Scattered Clouds
5:55 PM 94.6 °F 95.9 °F 63.1 °F 35% 29.82 in 10.0 mi ESE 18.4 mph 27.6 mph N/A   Scattered Clouds
6:15 PM 94.1 °F 95.5 °F 63.5 °F 36% 29.82 in 10.0 mi ESE 18.4 mph 29.9 mph N/A   Scattered Clouds
6:35 PM 93.2 °F 94.1 °F 62.2 °F 36% 29.82 in 10.0 mi ESE 19.6 mph 27.6 mph N/A   Clear
6:55 PM 92.3 °F 92.7 °F 61.5 °F 36% 29.82 in 10.0 mi ESE 17.3 mph 26.5 mph N/A   Clear
7:15 PM 91.0 °F 92.6 °F 64.2 °F 41% 29.82 in 10.0 mi SE 16.1 mph 25.3 mph N/A   Clear
7:35 PM 90.0 °F 92.0 °F 65.1 °F 44% 29.83 in 10.0 mi ESE 23.0 mph 27.6 mph N/A   Clear
7:55 PM 88.7 °F 91.1 °F 65.8 °F 47% 29.83 in 10.0 mi ESE 12.7 mph 24.2 mph N/A   Clear
8:15 PM 87.8 °F 90.4 °F 66.2 °F 49% 29.84 in 10.0 mi ESE 16.1 mph 24.2 mph N/A   Clear
8:35 PM 86.9 °F 89.3 °F 66.4 °F 50% 29.84 in 10.0 mi ESE 18.4 mph 27.6 mph N/A   Clear
8:55 PM 85.6 °F 88.5 °F 67.1 °F 54% 29.85 in 10.0 mi ESE 18.4 mph 25.3 mph N/A   Clear
9:15 PM 84.9 °F 87.6 °F 67.1 °F 55% 29.86 in 10.0 mi SE 16.1 mph 26.5 mph N/A   Clear
9:35 PM 84.2 °F 87.1 °F 67.5 °F 57% 29.86 in 10.0 mi ESE 12.7 mph 26.5 mph N/A   Clear
9:55 PM 83.1 °F 86.3 °F 68.2 °F 61% 29.87 in 10.0 mi ESE 13.8 mph 24.2 mph N/A   Clear
10:15 PM 82.6 °F 85.7 °F 68.4 °F 62% 29.89 in 10.0 mi ESE 16.1 mph 26.5 mph N/A   Clear
10:35 PM 81.7 °F 84.7 °F 68.5 °F 64% 29.90 in 10.0 mi ESE 17.3 mph 24.2 mph N/A   Clear
10:55 PM 81.1 °F 84.0 °F 68.2 °F 65% 29.90 in 10.0 mi SE 16.1 mph 26.5 mph N/A   Clear
11:15 PM 80.6 °F 83.2 °F 67.6 °F 65% 29.90 in 10.0 mi SE 15.0 mph 21.9 mph N/A   Clear
11:35 PM 79.9 °F - 67.5 °F 66% 29.90 in 10.0 mi SE 16.1 mph 23.0 mph N/A   Clear
11:55 PM 79.3 °F - 67.8 °F 68% 29.90 in 10.0 mi SE 15.0 mph 21.9 mph N/A   Clear